{"data":{"norad_id":53400,"intl_designator":"2022-097N","name":"STARLINK-4520","alt_names":[],"object_type":"PAYLOAD","status":"ACTIVE","operator":null,"country":"US","launch_date":"2022-08-10","launch_site_code":"AFETR","launch_vehicle":null,"mission":null,"orbit_class":"UNKNOWN","rcs_meters":null,"size_class":null,"mass_kg":null,"dimensions":null,"purposes":["comms"],"wikipedia_slug":null,"has_3d_model":false,"image_url":null,"decayed_at":null,"tle_current":{"epoch":"2026-05-24T23:26:34.694016Z","epoch_age_seconds":73748,"freshness":"FRESH","line1":"1 53400U 22097N   26144.97679044  .00000409  00000+0  43810-4 0  9997","line2":"2 53400  53.2130 141.6549 0000953  74.9124 285.1974 15.08836106210032","mean_motion":15.08836106,"eccentricity":9.53e-5,"inclination_deg":53.213,"raan_deg":141.6549,"arg_perigee_deg":74.9124,"mean_anomaly_deg":285.1974,"bstar":4.381e-5,"rev_number":21003,"period_min":95.43780098274,"perigee_km":539.09601625451,"apogee_km":540.41456652525,"semimajor_km":6917.8922913899,"source":"CELESTRAK","updated_at":"2026-05-25T13:38:17.397788Z"}}}